Voltar ao catálogo

SL-12 DEB

AtivoHEO
NORAD 41699·DEBRIS·🇷🇺 Russia

Lançado Mar 1, 2010 de Baikonur Cosmodrome

Loading…

Próximas Passagens (próximas 24 horas)

TLE

AtualizadoSource: Space-Track

Época: Sep 14, 2026, 13:21 UTC

1 41699U 10007R   26257.55655542  .00000057  00000-0  18259-3 0  9996
2 41699  64.8901 105.5799 5493416 303.1401  15.6585  4.37312384191735

Acompanhe SL-12 DEB em tempo real com AllMySat

Download on the App Store